Location: Unspecified
(35.6895°N, 139.6917°E)
Time: 10:29:31
(UTC+00:00)

ASTRO H - Visible Passes

Search period start: 28 September 2021 00:00
Search period end: 08 October 2021 00:00
Orbit: 562 x 579 km, 31.0° (Epoch: 27 September)

Date Brightness Start Highest point End Pass type
(mag) Time Alt. Az. Time Alt. Az. Time Alt. Az.
02 Oct ? 09:24:10 10° SSE 09:25:00 10° SSE 09:25:42 10° SE visible
03 Oct ? 09:22:25 10° S 09:24:52 15° SSE 09:26:01 14° SE visible
04 Oct ? 09:21:37 10° SSW 09:24:46 20° SSE 09:26:15 17° SE visible
04 Oct ? 11:02:05 10° WSW 11:02:16 11° WSW 11:02:16 11° WSW visible
05 Oct ? 09:21:08 10° SW 09:24:41 26° SSE 09:26:25 20° SE visible
05 Oct ? 11:02:01 10° WSW 11:02:25 12° WSW 11:02:25 12° WSW visible
06 Oct ? 09:20:50 10° SW 09:24:38 32° SSE 09:26:31 22° ESE visible
06 Oct ? 11:02:00 10° WSW 11:02:32 13° WSW 11:02:32 13° WSW visible
07 Oct ? 09:20:39 10° WSW 09:24:37 37° S 09:26:35 24° ESE visible
07 Oct ? 11:02:01 10° WSW 11:02:35 13° WSW 11:02:35 13° WSW visible
